Time,TemperatureF,DewpointF,PressureIn,WindDirection,WindDirectionDegrees,WindSpeedMPH,WindSpeedGustMPH,Humidity,HourlyPrecipIn,Conditions,Clouds,dailyrainin,SoftwareType,DateUTC
2013-10-03 00:04:00,55.0,53.0,29.95,NE,38,1.0,2.0,94,0.10,,,0.00,Meteo,2013-10-03 05:04:00,
2013-10-03 00:09:00,55.0,53.0,29.95,ENE,70,1.0,2.0,94,0.10,,,0.00,Meteo,2013-10-03 05:09:00,
2013-10-03 00:14:00,55.0,53.0,29.95,NE,53,1.0,2.0,94,0.10,,,0.00,Meteo,2013-10-03 05:14:00,
2013-10-03 00:19:00,55.0,53.0,29.94,ENE,64,1.0,2.0,94,0.11,,,0.00,Meteo,2013-10-03 05:19:00,
2013-10-03 00:24:00,54.0,52.0,29.94,NE,49,1.0,3.0,93,0.10,,,0.00,Meteo,2013-10-03 05:24:00,
2013-10-03 00:29:00,54.0,52.0,29.94,NE,54,1.0,3.0,94,0.09,,,0.00,Meteo,2013-10-03 05:29:00,
2013-10-03 00:34:00,54.0,52.0,29.94,ENE,61,0.0,1.0,94,0.09,,,0.00,Meteo,2013-10-03 05:34:00,
2013-10-03 00:39:00,54.0,52.0,29.94,East,92,1.0,2.0,94,0.08,,,0.00,Meteo,2013-10-03 05:39:00,
2013-10-03 00:44:00,54.0,52.0,29.94,ESE,121,1.0,3.0,93,0.06,,,0.00,Meteo,2013-10-03 05:44:00,
2013-10-03 00:49:00,54.0,52.0,29.94,ENE,59,1.0,2.0,93,0.05,,,0.00,Meteo,2013-10-03 05:49:00,
2013-10-03 00:54:00,54.0,52.0,29.94,East,85,1.0,3.0,92,0.05,,,0.00,Meteo,2013-10-03 05:54:00,
2013-10-03 00:59:00,54.0,52.0,29.94,NE,44,1.0,2.0,92,0.04,,,0.00,Meteo,2013-10-03 05:59:00,
2013-10-03 01:04:00,54.0,52.0,29.94,NE,38,1.0,2.0,92,0.03,,,0.00,Meteo,2013-10-03 06:04:00,
2013-10-03 01:09:00,54.0,52.0,29.94,ENE,70,2.0,4.0,92,0.02,,,0.00,Meteo,2013-10-03 06:09:00,
2013-10-03 01:14:00,54.0,52.0,29.93,ENE,63,1.0,3.0,92,0.02,,,0.00,Meteo,2013-10-03 06:14:00,
2013-10-03 01:19:00,54.0,52.0,29.93,ENE,59,1.0,2.0,92,0.01,,,0.00,Meteo,2013-10-03 06:19:00,
2013-10-03 01:24:00,54.0,52.0,29.94,ENE,57,1.0,2.0,92,0.01,,,0.00,Meteo,2013-10-03 06:24:00,
2013-10-03 01:29:00,54.0,52.0,29.94,NE,36,0.0,1.0,92,0.01,,,0.00,Meteo,2013-10-03 06:29:00,
2013-10-03 01:34:00,54.0,52.0,29.94,NE,49,1.0,2.0,93,0.01,,,0.00,Meteo,2013-10-03 06:34:00,
2013-10-03 01:39:00,54.0,52.0,29.94,NE,54,1.0,2.0,93,0.01,,,0.00,Meteo,2013-10-03 06:39:00,
2013-10-03 01:44:00,54.0,52.0,29.94,NE,42,1.0,2.0,93,0.01,,,0.00,Meteo,2013-10-03 06:44:00,
2013-10-03 01:49:00,54.0,52.0,29.94,ENE,74,2.0,6.0,93,0.01,,,0.00,Meteo,2013-10-03 06:49:00,
2013-10-03 01:54:00,54.0,52.0,29.94,ENE,60,1.0,2.0,93,0.00,,,0.00,Meteo,2013-10-03 06:54:00,
2013-10-03 01:59:00,54.0,52.0,29.94,ENE,69,1.0,2.0,93,0.00,,,0.00,Meteo,2013-10-03 06:59:00,
2013-10-03 02:04:00,54.0,52.0,29.94,East,82,2.0,5.0,93,0.00,,,0.00,Meteo,2013-10-03 07:04:00,
2013-10-03 02:09:00,54.0,52.0,29.93,NNE,31,1.0,2.0,93,0.00,,,0.00,Meteo,2013-10-03 07:09:00,
2013-10-03 02:14:00,54.0,52.0,29.93,NE,37,2.0,4.0,93,0.00,,,0.00,Meteo,2013-10-03 07:14:00,
2013-10-03 02:19:00,54.0,52.0,29.93,NE,50,3.0,5.0,94,0.00,,,0.00,Meteo,2013-10-03 07:19:00,
2013-10-03 02:24:00,54.0,52.0,29.93,ENE,62,1.0,2.0,94,0.00,,,0.00,Meteo,2013-10-03 07:24:00,
2013-10-03 02:29:00,54.0,52.0,29.93,NE,55,2.0,3.0,94,0.00,,,0.00,Meteo,2013-10-03 07:29:00,
2013-10-03 02:34:00,54.0,52.0,29.93,ENE,74,2.0,3.0,94,0.00,,,0.00,Meteo,2013-10-03 07:34:00,
2013-10-03 02:39:00,54.0,52.0,29.92,East,88,2.0,3.0,94,0.01,,,0.01,Meteo,2013-10-03 07:39:00,
2013-10-03 02:44:00,54.0,52.0,29.93,ENE,77,1.0,2.0,94,0.01,,,0.01,Meteo,2013-10-03 07:44:00,
2013-10-03 02:49:00,53.0,51.0,29.92,East,79,3.0,4.0,94,0.01,,,0.01,Meteo,2013-10-03 07:49:00,
2013-10-03 02:54:00,53.0,51.0,29.92,ENE,75,2.0,5.0,94,0.02,,,0.02,Meteo,2013-10-03 07:54:00,
2013-10-03 02:59:00,53.0,51.0,29.91,NE,42,2.0,2.0,94,0.02,,,0.02,Meteo,2013-10-03 07:59:00,
2013-10-03 03:04:00,53.0,51.0,29.91,ENE,57,2.0,3.0,94,0.03,,,0.03,Meteo,2013-10-03 08:04:00,
2013-10-03 03:09:00,53.0,51.0,29.91,ENE,67,3.0,5.0,94,0.03,,,0.03,Meteo,2013-10-03 08:09:00,
2013-10-03 03:14:00,53.0,51.0,29.91,ENE,74,3.0,6.0,94,0.04,,,0.04,Meteo,2013-10-03 08:14:00,
2013-10-03 03:19:00,53.0,51.0,29.91,ENE,78,2.0,4.0,94,0.04,,,0.04,Meteo,2013-10-03 08:19:00,
2013-10-03 03:24:00,53.0,51.0,29.91,ENE,77,4.0,5.0,94,0.04,,,0.04,Meteo,2013-10-03 08:24:00,
2013-10-03 03:29:00,53.0,51.0,29.91,ENE,73,3.0,4.0,94,0.04,,,0.04,Meteo,2013-10-03 08:29:00,
2013-10-03 03:34:00,53.0,51.0,29.91,East,82,3.0,5.0,94,0.04,,,0.04,Meteo,2013-10-03 08:34:00,
2013-10-03 03:39:00,53.0,51.0,29.91,ENE,76,2.0,5.0,94,0.03,,,0.04,Meteo,2013-10-03 08:39:00,
2013-10-03 03:44:00,53.0,51.0,29.91,East,82,3.0,4.0,94,0.03,,,0.04,Meteo,2013-10-03 08:44:00,
2013-10-03 03:49:00,53.0,51.0,29.90,East,85,3.0,5.0,94,0.03,,,0.04,Meteo,2013-10-03 08:49:00,
2013-10-03 03:54:00,53.0,51.0,29.91,East,79,3.0,4.0,94,0.02,,,0.04,Meteo,2013-10-03 08:54:00,
2013-10-03 03:59:00,53.0,51.0,29.91,ENE,73,2.0,3.0,94,0.02,,,0.04,Meteo,2013-10-03 08:59:00,
2013-10-03 04:04:00,53.0,51.0,29.91,East,84,3.0,4.0,94,0.01,,,0.04,Meteo,2013-10-03 09:04:00,
2013-10-03 04:09:00,53.0,51.0,29.91,East,94,2.0,4.0,94,0.01,,,0.04,Meteo,2013-10-03 09:09:00,
2013-10-03 04:14:00,53.0,51.0,29.91,ENE,75,3.0,5.0,94,0.00,,,0.04,Meteo,2013-10-03 09:14:00,
2013-10-03 04:19:00,53.0,51.0,29.91,East,85,2.0,4.0,94,0.00,,,0.04,Meteo,2013-10-03 09:19:00,
2013-10-03 04:24:00,53.0,52.0,29.91,East,91,3.0,5.0,95,0.00,,,0.04,Meteo,2013-10-03 09:24:00,
2013-10-03 04:29:00,53.0,52.0,29.91,ENE,69,3.0,5.0,95,0.00,,,0.04,Meteo,2013-10-03 09:29:00,
2013-10-03 04:34:00,53.0,52.0,29.91,East,85,1.0,3.0,95,0.00,,,0.04,Meteo,2013-10-03 09:34:00,
2013-10-03 04:39:00,53.0,51.0,29.91,East,83,2.0,3.0,94,0.00,,,0.04,Meteo,2013-10-03 09:39:00,
2013-10-03 04:44:00,53.0,51.0,29.91,East,82,3.0,4.0,94,0.01,,,0.05,Meteo,2013-10-03 09:44:00,
2013-10-03 04:49:00,53.0,52.0,29.90,East,85,3.0,6.0,95,0.01,,,0.05,Meteo,2013-10-03 09:49:00,
2013-10-03 04:54:00,53.0,52.0,29.91,East,79,2.0,4.0,95,0.01,,,0.05,Meteo,2013-10-03 09:54:00,
2013-10-03 04:59:00,53.0,52.0,29.91,ENE,72,2.0,4.0,95,0.01,,,0.05,Meteo,2013-10-03 09:59:00,
2013-10-03 05:04:00,53.0,52.0,29.91,East,99,3.0,5.0,95,0.01,,,0.05,Meteo,2013-10-03 10:04:00,
2013-10-03 05:09:00,53.0,52.0,29.91,ENE,77,1.0,2.0,95,0.01,,,0.05,Meteo,2013-10-03 10:09:00,
2013-10-03 05:14:00,53.0,52.0,29.91,East,83,2.0,4.0,95,0.01,,,0.05,Meteo,2013-10-03 10:14:00,
2013-10-03 05:19:00,53.0,52.0,29.91,ENE,72,3.0,5.0,95,0.01,,,0.05,Meteo,2013-10-03 10:19:00,
2013-10-03 05:24:00,53.0,52.0,29.91,ENE,78,3.0,4.0,95,0.01,,,0.05,Meteo,2013-10-03 10:24:00,
2013-10-03 05:29:00,53.0,52.0,29.90,East,83,3.0,6.0,95,0.01,,,0.05,Meteo,2013-10-03 10:29:00,
2013-10-03 05:34:00,53.0,52.0,29.91,East,99,2.0,5.0,95,0.01,,,0.05,Meteo,2013-10-03 10:34:00,
2013-10-03 05:39:00,53.0,52.0,29.91,East,84,2.0,2.0,95,0.01,,,0.05,Meteo,2013-10-03 10:39:00,
2013-10-03 05:44:00,53.0,52.0,29.91,East,89,1.0,3.0,95,0.00,,,0.05,Meteo,2013-10-03 10:44:00,
2013-10-03 05:49:00,53.0,52.0,29.91,ENE,72,2.0,5.0,95,0.00,,,0.05,Meteo,2013-10-03 10:49:00,
2013-10-03 05:54:00,53.0,52.0,29.91,ENE,76,3.0,4.0,96,0.00,,,0.05,Meteo,2013-10-03 10:54:00,
2013-10-03 06:00:00,53.0,52.0,29.91,East,79,1.0,2.0,95,0.01,,,0.06,Meteo,2013-10-03 11:00:00,
2013-10-03 06:05:00,53.0,52.0,29.91,ENE,63,1.0,2.0,95,0.01,,,0.06,Meteo,2013-10-03 11:05:00,
2013-10-03 06:10:00,53.0,52.0,29.91,East,90,1.0,3.0,95,0.01,,,0.06,Meteo,2013-10-03 11:10:00,
2013-10-03 06:15:00,53.0,52.0,29.91,East,86,1.0,2.0,95,0.01,,,0.06,Meteo,2013-10-03 11:15:00,
2013-10-03 06:20:00,53.0,52.0,29.91,East,95,2.0,4.0,96,0.01,,,0.06,Meteo,2013-10-03 11:20:00,
2013-10-03 06:25:00,53.0,52.0,29.91,East,84,1.0,2.0,95,0.01,,,0.06,Meteo,2013-10-03 11:25:00,
2013-10-03 06:30:00,53.0,52.0,29.91,East,89,1.0,2.0,95,0.01,,,0.06,Meteo,2013-10-03 11:30:00,
2013-10-03 06:35:00,53.0,52.0,29.92,East,93,2.0,3.0,95,0.01,,,0.06,Meteo,2013-10-03 11:35:00,
2013-10-03 06:40:00,53.0,52.0,29.92,East,92,0.0,1.0,95,0.01,,,0.06,Meteo,2013-10-03 11:40:00,
2013-10-03 06:45:00,53.0,52.0,29.92,East,82,0.0,1.0,95,0.01,,,0.06,Meteo,2013-10-03 11:45:00,
2013-10-03 06:50:00,53.0,52.0,29.92,East,82,0.0,1.0,95,0.01,,,0.06,Meteo,2013-10-03 11:50:00,
2013-10-03 06:55:00,53.0,52.0,29.92,East,82,1.0,2.0,96,0.00,,,0.06,Meteo,2013-10-03 11:55:00,
2013-10-03 07:00:00,53.0,52.0,29.92,North,0,0.0,0.0,95,0.00,,,0.06,Meteo,2013-10-03 12:00:00,
2013-10-03 07:05:00,53.0,52.0,29.92,North,0,0.0,0.0,96,0.00,,,0.06,Meteo,2013-10-03 12:05:00,
2013-10-03 07:10:00,53.0,52.0,29.92,North,0,0.0,0.0,95,0.00,,,0.06,Meteo,2013-10-03 12:10:00,
2013-10-03 07:16:00,53.0,52.0,29.92,East,83,0.0,1.0,95,0.00,,,0.06,Meteo,2013-10-03 12:16:00,
2013-10-03 07:21:00,53.0,52.0,29.93,North,0,0.0,0.0,95,0.00,,,0.06,Meteo,2013-10-03 12:21:00,
2013-10-03 07:26:00,53.0,52.0,29.93,North,0,0.0,0.0,96,0.00,,,0.06,Meteo,2013-10-03 12:26:00,
2013-10-03 07:31:00,53.0,52.0,29.93,East,84,0.0,1.0,96,0.00,,,0.06,Meteo,2013-10-03 12:31:00,
2013-10-03 07:36:00,53.0,52.0,29.92,North,0,0.0,0.0,95,0.00,,,0.06,Meteo,2013-10-03 12:36:00,
2013-10-03 07:41:00,53.0,52.0,29.93,North,0,0.0,0.0,95,0.00,,,0.06,Meteo,2013-10-03 12:41:00,
2013-10-03 07:46:00,53.0,52.0,29.92,East,84,0.0,1.0,95,0.00,,,0.06,Meteo,2013-10-03 12:46:00,
2013-10-03 07:51:00,53.0,52.0,29.92,East,84,0.0,1.0,95,0.00,,,0.06,Meteo,2013-10-03 12:51:00,
2013-10-03 07:56:00,53.0,52.0,29.92,East,84,0.0,1.0,96,0.00,,,0.06,Meteo,2013-10-03 12:56:00,
2013-10-03 08:01:00,54.0,53.0,29.92,East,84,0.0,1.0,96,0.00,,,0.06,Meteo,2013-10-03 13:01:00,
2013-10-03 08:06:00,54.0,53.0,29.92,East,84,0.0,1.0,96,0.00,,,0.06,Meteo,2013-10-03 13:06:00,
2013-10-03 08:11:00,54.0,53.0,29.92,North,0,0.0,0.0,95,0.00,,,0.06,Meteo,2013-10-03 13:11:00,
2013-10-03 08:16:00,54.0,53.0,29.92,East,84,2.0,3.0,96,0.00,,,0.06,Meteo,2013-10-03 13:16:00,
2013-10-03 08:21:00,54.0,53.0,29.92,East,91,2.0,4.0,96,0.00,,,0.06,Meteo,2013-10-03 13:21:00,
2013-10-03 08:26:00,54.0,53.0,29.92,East,84,2.0,3.0,96,0.00,,,0.06,Meteo,2013-10-03 13:26:00,
2013-10-03 08:31:00,54.0,53.0,29.92,East,89,1.0,2.0,96,0.00,,,0.06,Meteo,2013-10-03 13:31:00,
2013-10-03 08:36:00,54.0,53.0,29.93,East,86,1.0,2.0,96,0.00,,,0.06,Meteo,2013-10-03 13:36:00,
2013-10-03 08:41:00,54.0,53.0,29.93,East,87,2.0,3.0,95,0.00,,,0.06,Meteo,2013-10-03 13:41:00,
2013-10-03 08:46:00,54.0,53.0,29.93,North,0,0.0,0.0,96,0.00,,,0.06,Meteo,2013-10-03 13:46:00,
2013-10-03 08:51:00,54.0,53.0,29.93,East,91,1.0,3.0,95,0.00,,,0.06,Meteo,2013-10-03 13:51:00,
2013-10-03 08:56:00,54.0,53.0,29.93,North,0,0.0,0.0,95,0.00,,,0.06,Meteo,2013-10-03 13:56:00,
2013-10-03 09:01:00,54.0,53.0,29.93,North,0,0.0,0.0,95,0.00,,,0.06,Meteo,2013-10-03 14:01:00,
2013-10-03 09:06:00,54.0,53.0,29.93,SE,140,1.0,2.0,96,0.00,,,0.06,Meteo,2013-10-03 14:06:00,
2013-10-03 09:11:00,55.0,54.0,29.93,East,99,1.0,2.0,95,0.00,,,0.06,Meteo,2013-10-03 14:11:00,
2013-10-03 09:16:00,55.0,54.0,29.93,East,91,0.0,1.0,95,0.00,,,0.06,Meteo,2013-10-03 14:16:00,
2013-10-03 09:21:00,55.0,54.0,29.92,East,92,1.0,2.0,95,0.00,,,0.06,Meteo,2013-10-03 14:21:00,
2013-10-03 09:26:00,55.0,54.0,29.92,East,93,0.0,1.0,95,0.00,,,0.06,Meteo,2013-10-03 14:26:00,
2013-10-03 09:31:00,55.0,54.0,29.92,East,92,1.0,2.0,95,0.00,,,0.06,Meteo,2013-10-03 14:31:00,
2013-10-03 09:36:00,55.0,53.0,29.92,ENE,72,1.0,2.0,94,0.00,,,0.06,Meteo,2013-10-03 14:36:00,
2013-10-03 09:41:00,55.0,53.0,29.92,ENE,72,1.0,2.0,94,0.00,,,0.06,Meteo,2013-10-03 14:41:00,
2013-10-03 09:46:00,55.0,53.0,29.92,NE,44,1.0,2.0,93,0.00,,,0.06,Meteo,2013-10-03 14:46:00,
2013-10-03 09:51:00,55.0,53.0,29.91,East,90,1.0,3.0,93,0.00,,,0.06,Meteo,2013-10-03 14:51:00,
2013-10-03 09:56:00,55.0,53.0,29.92,East,90,0.0,1.0,94,0.00,,,0.06,Meteo,2013-10-03 14:56:00,
2013-10-03 10:01:00,56.0,54.0,29.91,East,90,0.0,1.0,93,0.00,,,0.06,Meteo,2013-10-03 15:01:00,
2013-10-03 10:06:00,56.0,54.0,29.92,ENE,62,2.0,4.0,93,0.00,,,0.06,Meteo,2013-10-03 15:06:00,
2013-10-03 10:11:00,56.0,54.0,29.92,East,92,1.0,2.0,93,0.00,,,0.06,Meteo,2013-10-03 15:11:00,
2013-10-03 10:16:00,56.0,54.0,29.91,East,91,0.0,1.0,92,0.00,,,0.06,Meteo,2013-10-03 15:16:00,
2013-10-03 10:21:00,56.0,54.0,29.91,East,92,1.0,2.0,92,0.00,,,0.06,Meteo,2013-10-03 15:21:00,
2013-10-03 10:26:00,57.0,55.0,29.91,East,92,1.0,3.0,92,0.00,,,0.06,Meteo,2013-10-03 15:26:00,
2013-10-03 10:31:00,57.0,54.0,29.91,NE,44,0.0,1.0,90,0.00,,,0.06,Meteo,2013-10-03 15:31:00,
2013-10-03 10:36:00,57.0,54.0,29.91,NE,45,0.0,1.0,91,0.00,,,0.06,Meteo,2013-10-03 15:36:00,
2013-10-03 10:41:00,57.0,54.0,29.91,ENE,61,2.0,3.0,90,0.00,,,0.06,Meteo,2013-10-03 15:41:00,
2013-10-03 10:46:00,57.0,54.0,29.91,East,86,1.0,2.0,90,0.00,,,0.06,Meteo,2013-10-03 15:46:00,
2013-10-03 10:51:00,57.0,54.0,29.91,East,88,2.0,3.0,90,0.00,,,0.06,Meteo,2013-10-03 15:51:00,
2013-10-03 10:56:00,57.0,54.0,29.92,East,96,1.0,2.0,90,0.00,,,0.06,Meteo,2013-10-03 15:56:00,
2013-10-03 11:01:00,58.0,54.0,29.92,East,94,1.0,2.0,88,0.00,,,0.06,Meteo,2013-10-03 16:01:00,
2013-10-03 11:06:00,58.0,54.0,29.92,ENE,69,2.0,4.0,87,0.00,,,0.06,Meteo,2013-10-03 16:06:00,
2013-10-03 11:11:00,58.0,54.0,29.92,ENE,78,2.0,4.0,87,0.00,,,0.06,Meteo,2013-10-03 16:11:00,
2013-10-03 11:16:00,58.0,54.0,29.92,East,88,3.0,5.0,88,0.00,,,0.06,Meteo,2013-10-03 16:16:00,
2013-10-03 11:21:00,58.0,54.0,29.92,NE,50,2.0,3.0,86,0.00,,,0.06,Meteo,2013-10-03 16:21:00,
2013-10-03 11:26:00,58.0,54.0,29.91,East,89,1.0,3.0,85,0.00,,,0.06,Meteo,2013-10-03 16:26:00,
2013-10-03 11:31:00,58.0,54.0,29.92,NE,48,2.0,3.0,85,0.00,,,0.06,Meteo,2013-10-03 16:31:00,
2013-10-03 11:36:00,58.0,54.0,29.91,East,81,1.0,4.0,85,0.00,,,0.06,Meteo,2013-10-03 16:36:00,
2013-10-03 11:41:00,58.0,53.0,29.92,ENE,64,3.0,7.0,83,0.00,,,0.06,Meteo,2013-10-03 16:41:00,
2013-10-03 11:46:00,58.0,53.0,29.92,ENE,72,3.0,5.0,83,0.00,,,0.06,Meteo,2013-10-03 16:46:00,
2013-10-03 11:51:00,58.0,53.0,29.92,ENE,58,3.0,6.0,83,0.00,,,0.06,Meteo,2013-10-03 16:51:00,
2013-10-03 11:56:00,58.0,53.0,29.92,East,82,2.0,4.0,84,0.00,,,0.06,Meteo,2013-10-03 16:56:00,
2013-10-03 12:01:00,58.0,53.0,29.92,East,91,3.0,4.0,84,0.00,,,0.06,Meteo,2013-10-03 17:01:00,
2013-10-03 12:06:00,58.0,53.0,29.92,East,95,3.0,4.0,82,0.00,,,0.06,Meteo,2013-10-03 17:06:00,
2013-10-03 12:11:00,59.0,53.0,29.92,NE,41,2.0,4.0,81,0.00,,,0.06,Meteo,2013-10-03 17:11:00,
2013-10-03 12:16:00,58.0,52.0,29.92,ENE,69,1.0,2.0,81,0.00,,,0.06,Meteo,2013-10-03 17:16:00,
2013-10-03 12:21:00,59.0,53.0,29.92,East,79,2.0,4.0,81,0.00,,,0.06,Meteo,2013-10-03 17:21:00,
2013-10-03 12:26:00,58.0,52.0,29.92,ENE,68,2.0,5.0,80,0.00,,,0.06,Meteo,2013-10-03 17:26:00,
2013-10-03 12:31:00,58.0,52.0,29.92,East,79,3.0,4.0,80,0.00,,,0.06,Meteo,2013-10-03 17:31:00,
2013-10-03 12:36:00,58.0,52.0,29.92,ENE,70,3.0,5.0,80,0.00,,,0.06,Meteo,2013-10-03 17:36:00,
2013-10-03 12:41:00,58.0,52.0,29.92,East,90,1.0,4.0,81,0.00,,,0.06,Meteo,2013-10-03 17:41:00,
2013-10-03 12:46:00,58.0,52.0,29.92,ENE,73,2.0,4.0,81,0.00,,,0.06,Meteo,2013-10-03 17:46:00,
2013-10-03 12:51:00,58.0,52.0,29.92,ENE,67,2.0,4.0,80,0.00,,,0.06,Meteo,2013-10-03 17:51:00,
2013-10-03 12:56:00,58.0,52.0,29.92,East,82,2.0,4.0,79,0.00,,,0.06,Meteo,2013-10-03 17:56:00,
2013-10-03 13:01:00,59.0,53.0,29.92,NE,34,1.0,3.0,79,0.00,,,0.06,Meteo,2013-10-03 18:01:00,
2013-10-03 13:06:00,59.0,52.0,29.92,ENE,70,1.0,2.0,78,0.00,,,0.06,Meteo,2013-10-03 18:06:00,
2013-10-03 13:11:00,59.0,51.0,29.92,ENE,74,2.0,4.0,76,0.00,,,0.06,Meteo,2013-10-03 18:11:00,
2013-10-03 13:16:00,59.0,52.0,29.92,NNW,348,1.0,2.0,77,0.00,,,0.06,Meteo,2013-10-03 18:16:00,
2013-10-03 13:21:00,59.0,51.0,29.92,NNE,17,2.0,3.0,76,0.00,,,0.06,Meteo,2013-10-03 18:21:00,
2013-10-03 13:26:00,59.0,51.0,29.92,NE,47,1.0,3.0,76,0.00,,,0.06,Meteo,2013-10-03 18:26:00,
2013-10-03 13:33:00,59.0,51.0,29.92,NE,41,2.0,4.0,76,0.00,,,0.06,Meteo,2013-10-03 18:33:00,
2013-10-03 13:38:00,59.0,52.0,29.91,NNE,27,2.0,4.0,77,0.00,,,0.06,Meteo,2013-10-03 18:38:00,
2013-10-03 13:43:00,59.0,52.0,29.91,ENE,63,3.0,7.0,77,0.00,,,0.06,Meteo,2013-10-03 18:43:00,
2013-10-03 13:49:00,59.0,51.0,29.91,NE,44,3.0,7.0,76,0.00,,,0.06,Meteo,2013-10-03 18:49:00,
2013-10-03 13:54:00,59.0,51.0,29.91,NNE,32,2.0,4.0,76,0.00,,,0.06,Meteo,2013-10-03 18:54:00,
2013-10-03 13:59:00,59.0,53.0,29.91,NNE,16,2.0,3.0,79,0.00,,,0.06,Meteo,2013-10-03 18:59:00,
2013-10-03 14:04:00,59.0,53.0,29.91,NE,47,2.0,9.0,80,0.00,,,0.06,Meteo,2013-10-03 19:04:00,
2013-10-03 14:09:00,59.0,53.0,29.91,NE,44,2.0,2.0,79,0.00,,,0.06,Meteo,2013-10-03 19:09:00,
2013-10-03 14:14:00,59.0,52.0,29.91,NE,47,3.0,5.0,78,0.00,,,0.06,Meteo,2013-10-03 19:14:00,
2013-10-03 14:19:00,58.0,51.0,29.91,NNE,27,2.0,4.0,78,0.00,,,0.06,Meteo,2013-10-03 19:19:00,
2013-10-03 14:24:00,58.0,51.0,29.91,NE,41,3.0,6.0,77,0.00,,,0.06,Meteo,2013-10-03 19:24:00,
2013-10-03 14:29:00,58.0,50.0,29.90,NE,52,2.0,4.0,75,0.00,,,0.06,Meteo,2013-10-03 19:29:00,
2013-10-03 14:34:00,58.0,50.0,29.89,NE,35,2.0,4.0,76,0.00,,,0.06,Meteo,2013-10-03 19:34:00,
2013-10-03 14:39:00,58.0,51.0,29.89,ENE,61,2.0,4.0,78,0.00,,,0.06,Meteo,2013-10-03 19:39:00,
2013-10-03 14:44:00,58.0,51.0,29.89,NNE,33,3.0,5.0,78,0.00,,,0.06,Meteo,2013-10-03 19:44:00,
2013-10-03 14:49:00,58.0,51.0,29.89,NE,51,3.0,5.0,78,0.00,,,0.06,Meteo,2013-10-03 19:49:00,
2013-10-03 14:54:00,59.0,52.0,29.90,ENE,69,4.0,8.0,78,0.00,,,0.06,Meteo,2013-10-03 19:54:00,
2013-10-03 15:00:00,59.0,52.0,29.90,ENE,59,3.0,5.0,78,0.00,,,0.06,Meteo,2013-10-03 20:00:00,
2013-10-03 15:05:00,59.0,52.0,29.90,NE,34,2.0,4.0,78,0.00,,,0.06,Meteo,2013-10-03 20:05:00,
2013-10-03 15:10:00,59.0,52.0,29.90,ENE,71,2.0,5.0,78,0.00,,,0.06,Meteo,2013-10-03 20:10:00,
2013-10-03 15:15:00,59.0,53.0,29.90,NE,51,2.0,3.0,79,0.00,,,0.06,Meteo,2013-10-03 20:15:00,
2013-10-03 15:20:00,58.0,52.0,29.90,East,81,3.0,5.0,80,0.00,,,0.06,Meteo,2013-10-03 20:20:00,
2013-10-03 15:25:00,59.0,53.0,29.90,ENE,68,1.0,3.0,79,0.00,,,0.06,Meteo,2013-10-03 20:25:00,
2013-10-03 15:30:00,59.0,53.0,29.90,ENE,76,3.0,5.0,80,0.00,,,0.06,Meteo,2013-10-03 20:30:00,
2013-10-03 15:35:00,59.0,53.0,29.90,ENE,65,1.0,2.0,80,0.00,,,0.06,Meteo,2013-10-03 20:35:00,
2013-10-03 15:40:00,58.0,52.0,29.91,NNE,31,1.0,2.0,81,0.00,,,0.06,Meteo,2013-10-03 20:40:00,
2013-10-03 15:45:00,58.0,52.0,29.91,NE,55,2.0,3.0,81,0.00,,,0.06,Meteo,2013-10-03 20:45:00,
2013-10-03 15:50:00,58.0,53.0,29.91,ENE,65,3.0,5.0,82,0.00,,,0.06,Meteo,2013-10-03 20:50:00,
2013-10-03 15:55:00,58.0,52.0,29.91,NE,51,2.0,4.0,81,0.00,,,0.06,Meteo,2013-10-03 20:55:00,
2013-10-03 16:00:00,58.0,52.0,29.91,NNE,31,3.0,4.0,81,0.00,,,0.06,Meteo,2013-10-03 21:00:00,
2013-10-03 16:05:00,58.0,53.0,29.91,North,351,2.0,3.0,82,0.00,,,0.06,Meteo,2013-10-03 21:05:00,
2013-10-03 16:10:00,58.0,53.0,29.90,NE,52,1.0,4.0,82,0.00,,,0.06,Meteo,2013-10-03 21:10:00,
2013-10-03 16:15:00,58.0,53.0,29.90,NNW,334,2.0,5.0,83,0.00,,,0.06,Meteo,2013-10-03 21:15:00,
2013-10-03 16:20:00,58.0,53.0,29.91,NE,47,3.0,5.0,83,0.00,,,0.06,Meteo,2013-10-03 21:20:00,
2013-10-03 16:25:00,57.0,52.0,29.91,NE,50,2.0,4.0,84,0.00,,,0.06,Meteo,2013-10-03 21:25:00,
2013-10-03 16:30:00,57.0,52.0,29.91,NNE,31,1.0,2.0,84,0.00,,,0.06,Meteo,2013-10-03 21:30:00,
2013-10-03 16:35:00,57.0,52.0,29.91,NE,51,4.0,6.0,84,0.00,,,0.06,Meteo,2013-10-03 21:35:00,
2013-10-03 16:40:00,57.0,53.0,29.92,ENE,71,2.0,4.0,85,0.00,,,0.06,Meteo,2013-10-03 21:40:00,
2013-10-03 16:45:00,57.0,53.0,29.93,East,87,0.0,1.0,85,0.00,,,0.06,Meteo,2013-10-03 21:45:00,
2013-10-03 16:50:00,57.0,53.0,29.93,East,87,1.0,1.0,86,0.00,,,0.06,Meteo,2013-10-03 21:50:00,
2013-10-03 16:55:00,57.0,53.0,29.93,East,87,1.0,2.0,86,0.00,,,0.06,Meteo,2013-10-03 21:55:00,
2013-10-03 17:00:00,57.0,53.0,29.94,North,0,0.0,0.0,87,0.00,,,0.06,Meteo,2013-10-03 22:00:00,
2013-10-03 17:05:00,57.0,53.0,29.94,North,2,1.0,2.0,87,0.01,,,0.07,Meteo,2013-10-03 22:05:00,
2013-10-03 17:10:00,57.0,54.0,29.93,North,356,1.0,2.0,89,0.01,,,0.07,Meteo,2013-10-03 22:10:00,
2013-10-03 17:15:00,56.0,53.0,29.93,NNW,346,1.0,2.0,90,0.02,,,0.08,Meteo,2013-10-03 22:15:00,
2013-10-03 17:20:00,56.0,53.0,29.93,NNW,346,0.0,1.0,91,0.03,,,0.09,Meteo,2013-10-03 22:20:00,
2013-10-03 17:25:00,56.0,54.0,29.92,NE,54,2.0,3.0,92,0.04,,,0.10,Meteo,2013-10-03 22:25:00,
2013-10-03 17:30:00,56.0,54.0,29.92,NE,40,1.0,2.0,93,0.05,,,0.11,Meteo,2013-10-03 22:30:00,
2013-10-03 17:35:00,56.0,54.0,29.92,North,8,1.0,3.0,94,0.06,,,0.12,Meteo,2013-10-03 22:35:00,
2013-10-03 17:40:00,56.0,54.0,29.92,NNE,33,1.0,2.0,94,0.06,,,0.12,Meteo,2013-10-03 22:40:00,
2013-10-03 17:45:00,56.0,54.0,29.93,NE,40,1.0,4.0,94,0.07,,,0.13,Meteo,2013-10-03 22:45:00,
2013-10-03 17:50:00,56.0,54.0,29.93,NE,34,1.0,3.0,94,0.08,,,0.14,Meteo,2013-10-03 22:50:00,
2013-10-03 17:55:00,56.0,54.0,29.93,NNE,22,1.0,2.0,94,0.09,,,0.15,Meteo,2013-10-03 22:55:00,
2013-10-03 18:00:00,56.0,54.0,29.93,North,354,1.0,3.0,94,0.09,,,0.15,Meteo,2013-10-03 23:00:00,
2013-10-03 18:05:00,56.0,55.0,29.93,NE,45,2.0,3.0,95,0.09,,,0.16,Meteo,2013-10-03 23:05:00,
2013-10-03 18:10:00,56.0,55.0,29.93,NE,40,1.0,3.0,95,0.09,,,0.16,Meteo,2013-10-03 23:10:00,
2013-10-03 18:15:00,56.0,55.0,29.93,NE,39,1.0,4.0,95,0.08,,,0.16,Meteo,2013-10-03 23:15:00,
2013-10-03 18:20:00,56.0,55.0,29.94,NE,36,1.0,3.0,95,0.07,,,0.16,Meteo,2013-10-03 23:20:00,
2013-10-03 18:25:00,56.0,55.0,29.93,NE,42,2.0,4.0,95,0.06,,,0.16,Meteo,2013-10-03 23:25:00,
2013-10-03 18:30:00,56.0,55.0,29.94,North,5,1.0,3.0,95,0.05,,,0.16,Meteo,2013-10-03 23:30:00,
2013-10-03 18:35:00,56.0,55.0,29.94,ENE,58,1.0,3.0,95,0.04,,,0.16,Meteo,2013-10-03 23:35:00,
2013-10-03 18:40:00,55.0,53.0,29.94,NNE,18,2.0,5.0,94,0.05,,,0.17,Meteo,2013-10-03 23:40:00,
2013-10-03 18:45:00,55.0,53.0,29.94,NNE,29,1.0,2.0,94,0.04,,,0.17,Meteo,2013-10-03 23:45:00,
2013-10-03 18:50:00,55.0,54.0,29.94,North,11,1.0,2.0,95,0.03,,,0.17,Meteo,2013-10-03 23:50:00,
2013-10-03 18:55:00,55.0,54.0,29.94,NE,38,2.0,3.0,95,0.02,,,0.17,Meteo,2013-10-03 23:55:00,
2013-10-03 19:00:00,55.0,54.0,29.94,ENE,57,2.0,5.0,95,0.02,,,0.17,Meteo,2013-10-04 00:00:00,
2013-10-03 19:05:00,55.0,53.0,29.94,NNE,30,2.0,4.0,94,0.02,,,0.00,Meteo,2013-10-04 00:05:00,
2013-10-03 19:10:00,55.0,53.0,29.94,NE,42,1.0,3.0,94,0.02,,,0.00,Meteo,2013-10-04 00:10:00,
2013-10-03 19:15:00,55.0,53.0,29.94,NE,42,1.0,2.0,94,0.02,,,0.00,Meteo,2013-10-04 00:15:00,
2013-10-03 19:20:00,55.0,53.0,29.94,ENE,57,3.0,4.0,94,0.02,,,0.00,Meteo,2013-10-04 00:20:00,
2013-10-03 19:25:00,55.0,53.0,29.94,East,79,3.0,4.0,94,0.02,,,0.00,Meteo,2013-10-04 00:25:00,
2013-10-03 19:30:00,55.0,53.0,29.94,ENE,68,1.0,2.0,94,0.02,,,0.00,Meteo,2013-10-04 00:30:00,
2013-10-03 19:35:00,55.0,54.0,29.94,NE,35,2.0,3.0,95,0.03,,,0.00,Meteo,2013-10-04 00:35:00,
2013-10-03 19:40:00,55.0,54.0,29.94,NE,40,1.0,3.0,95,0.02,,,0.00,Meteo,2013-10-04 00:40:00,
2013-10-03 19:45:00,55.0,54.0,29.94,ENE,76,2.0,3.0,95,0.02,,,0.00,Meteo,2013-10-04 00:45:00,
2013-10-03 19:50:00,55.0,54.0,29.94,ENE,74,3.0,6.0,95,0.02,,,0.00,Meteo,2013-10-04 00:50:00,
2013-10-03 19:55:00,55.0,54.0,29.94,NE,43,3.0,7.0,95,0.02,,,0.00,Meteo,2013-10-04 00:55:00,
2013-10-03 20:00:00,55.0,54.0,29.94,ENE,62,3.0,5.0,95,0.02,,,0.00,Meteo,2013-10-04 01:00:00,
2013-10-03 20:05:00,55.0,54.0,29.94,NE,52,5.0,8.0,95,0.01,,,0.00,Meteo,2013-10-04 01:05:00,
2013-10-03 20:10:00,55.0,54.0,29.94,ENE,71,3.0,7.0,95,0.01,,,0.00,Meteo,2013-10-04 01:10:00,
2013-10-03 20:15:00,55.0,54.0,29.94,ENE,63,5.0,9.0,95,0.01,,,0.00,Meteo,2013-10-04 01:15:00,
2013-10-03 20:20:00,55.0,54.0,29.94,East,84,3.0,6.0,95,0.01,,,0.00,Meteo,2013-10-04 01:20:00,
2013-10-03 20:25:00,55.0,54.0,29.94,ENE,74,4.0,7.0,95,0.01,,,0.00,Meteo,2013-10-04 01:25:00,
2013-10-03 20:30:00,55.0,53.0,29.94,ENE,67,4.0,5.0,94,0.01,,,0.00,Meteo,2013-10-04 01:30:00,
2013-10-03 20:35:00,55.0,53.0,29.94,NNE,29,1.0,2.0,94,0.00,,,0.00,Meteo,2013-10-04 01:35:00,
2013-10-03 20:40:00,55.0,54.0,29.94,ENE,58,4.0,11.0,95,0.00,,,0.00,Meteo,2013-10-04 01:40:00,
2013-10-03 20:45:00,55.0,53.0,29.93,NE,51,5.0,9.0,94,0.00,,,0.00,Meteo,2013-10-04 01:45:00,
2013-10-03 20:50:00,55.0,53.0,29.93,ENE,58,4.0,5.0,94,0.00,,,0.00,Meteo,2013-10-04 01:50:00,
2013-10-03 20:55:00,55.0,53.0,29.94,NE,42,2.0,4.0,94,0.00,,,0.00,Meteo,2013-10-04 01:55:00,
2013-10-03 21:00:00,55.0,54.0,29.94,ENE,73,5.0,8.0,95,0.00,,,0.00,Meteo,2013-10-04 02:00:00,
2013-10-03 21:05:00,55.0,54.0,29.94,NE,51,3.0,5.0,95,0.00,,,0.00,Meteo,2013-10-04 02:05:00,
2013-10-03 21:10:00,55.0,53.0,29.94,East,80,4.0,7.0,94,0.00,,,0.00,Meteo,2013-10-04 02:10:00,
2013-10-03 21:15:00,54.0,52.0,29.94,ENE,75,4.0,6.0,94,0.00,,,0.00,Meteo,2013-10-04 02:15:00,
2013-10-03 21:20:00,54.0,52.0,29.94,East,80,3.0,7.0,94,0.00,,,0.00,Meteo,2013-10-04 02:20:00,
2013-10-03 21:25:00,54.0,52.0,29.95,ENE,59,2.0,3.0,94,0.00,,,0.00,Meteo,2013-10-04 02:25:00,
2013-10-03 21:30:00,54.0,52.0,29.95,NE,46,2.0,4.0,94,0.00,,,0.00,Meteo,2013-10-04 02:30:00,
2013-10-03 21:36:00,54.0,52.0,29.95,NE,35,2.0,3.0,93,0.00,,,0.00,Meteo,2013-10-04 02:36:00,
2013-10-03 21:41:00,54.0,52.0,29.94,ENE,76,3.0,4.0,94,0.00,,,0.00,Meteo,2013-10-04 02:41:00,
2013-10-03 21:46:00,54.0,52.0,29.95,East,79,2.0,4.0,94,0.00,,,0.00,Meteo,2013-10-04 02:46:00,
2013-10-03 21:51:00,54.0,52.0,29.95,ENE,77,3.0,7.0,93,0.00,,,0.00,Meteo,2013-10-04 02:51:00,
2013-10-03 21:56:00,54.0,52.0,29.95,ENE,74,2.0,4.0,93,0.00,,,0.00,Meteo,2013-10-04 02:56:00,
2013-10-03 22:01:00,55.0,53.0,29.95,East,79,3.0,6.0,93,0.00,,,0.00,Meteo,2013-10-04 03:01:00,
2013-10-03 22:06:00,55.0,53.0,29.95,NE,37,3.0,5.0,94,0.00,,,0.00,Meteo,2013-10-04 03:06:00,
2013-10-03 22:11:00,55.0,53.0,29.95,ENE,69,3.0,6.0,94,0.00,,,0.00,Meteo,2013-10-04 03:11:00,
2013-10-03 22:16:00,55.0,53.0,29.95,ENE,69,2.0,4.0,94,0.00,,,0.00,Meteo,2013-10-04 03:16:00,
2013-10-03 22:21:00,55.0,53.0,29.95,ENE,75,2.0,4.0,94,0.00,,,0.00,Meteo,2013-10-04 03:21:00,
2013-10-03 22:26:00,55.0,53.0,29.95,ENE,70,3.0,5.0,94,0.00,,,0.00,Meteo,2013-10-04 03:26:00,
2013-10-03 22:31:00,55.0,53.0,29.95,ENE,70,3.0,6.0,94,0.00,,,0.00,Meteo,2013-10-04 03:31:00,
2013-10-03 22:36:00,55.0,53.0,29.95,ENE,58,2.0,5.0,93,0.00,,,0.00,Meteo,2013-10-04 03:36:00,
2013-10-03 22:41:00,55.0,53.0,29.95,NE,54,3.0,5.0,93,0.00,,,0.00,Meteo,2013-10-04 03:41:00,
2013-10-03 22:46:00,55.0,53.0,29.95,ENE,63,2.0,2.0,93,0.00,,,0.00,Meteo,2013-10-04 03:46:00,
2013-10-03 22:51:00,55.0,53.0,29.95,NE,45,3.0,4.0,93,0.00,,,0.00,Meteo,2013-10-04 03:51:00,
2013-10-03 22:56:00,55.0,53.0,29.95,NE,50,2.0,4.0,93,0.00,,,0.00,Meteo,2013-10-04 03:56:00,
2013-10-03 23:33:00,55.0,53.0,29.96,NE,51,3.0,6.0,94,0.00,,,0.00,Meteo,2013-10-04 04:33:00,
2013-10-03 23:35:00,55.0,53.0,29.96,ENE,75,3.0,4.0,94,0.00,,,0.00,Meteo,2013-10-04 04:35:00,
2013-10-03 23:36:00,55.0,53.0,29.96,ENE,58,2.0,3.0,94,0.00,,,0.00,Meteo,2013-10-04 04:36:00,
2013-10-03 23:39:00,55.0,53.0,29.95,East,81,5.0,7.0,94,0.00,,,0.00,Meteo,2013-10-04 04:39:00,
2013-10-03 23:42:00,55.0,53.0,29.96,NE,42,2.0,3.0,93,0.00,,,0.00,Meteo,2013-10-04 04:42:00,
2013-10-03 23:46:00,55.0,53.0,29.96,ENE,70,4.0,7.0,94,0.00,,,0.00,Meteo,2013-10-04 04:46:00,
2013-10-03 23:50:00,55.0,53.0,29.96,ENE,60,3.0,5.0,94,0.00,,,0.00,Meteo,2013-10-04 04:50:00,
2013-10-03 23:55:00,55.0,53.0,29.97,ENE,70,2.0,6.0,93,0.00,,,0.00,Meteo,2013-10-04 04:55:00,